Avian Flight Center Webcam (1 minute updates)

Looking East from Avian at mid-field (Taxiway E) towards Runway 20-2 (Click for full size image). Image will update automatically every minute.

Bremerton Airport Live Webcam

KPWT 022055Z AUTO 20017G20KT 10SM FEW033 BKN040 BKN049 20/12 A2990 RMK AO1 57017

Time-lapse movie of yesterday's webcam images

If you are unable to view the movie, download and install the DivX Codec here